Location: McCall
(45.0000°N, 116.0000°W)
Time: 04:40:03
(UTC-06:00)

Saudisat 1A - Visible Passes

Search period start: 26 July 2017 00:00
Search period end: 05 August 2017 00:00
Orbit: 578 x 614 km, 64.6° (Epoch: 25 July)

Date Brightness Start Highest point End Pass type
(mag) Time Alt. Az. Time Alt. Az. Time Alt. Az.
26 Jul 10.9 04:11:54 10° N 04:15:12 20° NE 04:18:26 10° E visible
26 Jul 11.4 23:19:00 10° WNW 23:21:08 13° NNW 23:23:16 10° N visible
27 Jul 10.2 04:21:31 10° NNW 04:25:24 29° NE 04:29:13 10° ESE visible
27 Jul 10.0 21:46:42 10° WSW 21:50:49 36° NW 21:54:58 10° NNE visible
28 Jul 11.4 02:53:37 10° N 02:54:58 11° NNE 02:56:18 10° NE visible
28 Jul 9.2 04:31:15 10° NNW 04:35:30 45° NE 04:39:42 10° ESE visible
28 Jul 10.8 21:57:20 10° W 22:00:59 24° NW 22:04:38 10° NNE visible
29 Jul 11.1 03:02:42 10° N 03:05:20 15° NNE 03:07:56 10° ENE visible
29 Jul 8.1 04:41:05 10° NNW 04:45:31 77° NE 04:49:51 10° SE visible
29 Jul 11.1 22:08:19 10° WNW 22:11:15 17° NW 22:14:11 10° N visible
30 Jul 10.5 03:12:11 10° NNW 03:15:37 21° NE 03:19:00 10° E visible
30 Jul 7.9 04:51:04 10° NW 04:55:26 62° WSW 04:59:42 10° SSE visible
30 Jul 11.3 22:19:44 10° NW 22:21:35 12° NNW 22:23:27 10° N visible
31 Jul 9.8 03:21:49 10° NNW 03:25:48 32° NE 03:29:43 10° ESE visible
31 Jul 8.6 05:01:15 10° NW 05:05:15 35° WSW 05:09:11 10° S visible
01 Aug 11.1 01:53:44 10° N 01:55:25 12° NNE 01:57:05 10° NE visible
01 Aug 8.8 03:31:34 10° NNW 03:35:53 50° NE 03:40:07 10° SE visible
01 Aug 9.3 05:11:44 10° WNW 05:14:58 20° WSW 05:16:41 16° SW visible
02 Aug 10.8 02:02:57 10° N 02:05:47 16° NE 02:08:34 10° ENE visible
02 Aug 7.9 03:41:27 10° NW 03:45:53 85° ENE 03:47:19 42° SE visible
02 Aug 10.0 05:23:12 10° W 05:23:49 11° W 05:23:49 11° W visible
03 Aug 10.2 02:12:28 10° NNW 02:16:01 23° NE 02:18:44 14° E visible
03 Aug 8.2 03:51:28 10° NW 03:55:17 52° W 03:55:17 52° W visible
04 Aug 9.4 02:22:08 10° NNW 02:26:12 35° NE 02:27:08 31° ENE visible
04 Aug 9.5 04:01:41 10° NW 04:03:42 22° WNW 04:03:42 22° WNW visible
